Theta_e
323 321 321 321 324 323 322 322 323 318 315 310 304 301 301 300 298 296 296 295 295 295 296 296 296 296 296 296 296 296 295 294 293 293 293 295 299 304 312 314 315 316 317 319 320 319 320 321 320 320 321 320 318 317 316 316 315 315 315 314 315 315 314 313 312 312 311 310 310 310 311 312 312 311 312 312 312 312 313 311 311 311 312 312 312
325 324 324 326 325 324 323 321 317 315 312 306 304 301 301 299 297 296 295 294 294 295 295 295 295 295 295 295 295 295 295 294 293 292 291 291 294 298 306 311 313 314 315 316 317 318 318 318 318 319 319 318 317 316 316 315 315 314 314 313 314 313 312 312 311 310 310 310 309 310 311 311 311 311 310 311 311 312 312 311 311 313 313 313 313
329 328 327 326 324 322 319 316 315 314 309 305 303 301 299 298 297 296 296 294 293 294 294 294 294 294 295 294 293 293 293 293 292 292 292 291 291 292 297 304 309 311 312 313 315 316 317 317 316 317 317 317 316 316 315 315 314 313 313 312 313 313 312 311 310 309 309 309 309 310 310 310 310 310 310 310 310 311 311 311 311 312 312 312 312
328 326 324 321 319 318 316 314 312 309 305 303 301 300 299 298 298 296 294 293 293 293 294 294 294 294 294 294 293 293 292 291 291 291 291 291 290 290 290 294 301 305 308 311 313 314 314 313 313 314 315 315 315 317 316 314 313 312 313 313 313 312 311 310 309 310 309 309 310 310 309 309 310 310 310 310 310 310 310 310 310 311 310 310 311
325 323 320 320 317 315 313 311 310 307 305 303 302 301 299 297 297 295 294 294 294 294 295 293 292 292 293 292 291 291 291 290 290 290 290 290 290 289 289 290 290 297 301 304 308 310 311 311 312 312 313 313 313 314 313 313 313 312 313 312 312 312 312 311 309 309 309 309 309 309 309 309 309 309 309 309 309 309 309 309 310 310 310 310 310
324 322 321 318 316 313 311 309 308 306 304 303 302 299 297 296 295 294 295 293 292 292 292 291 291 292 292 291 290 290 289 289 289 289 289 289 289 289 288 287 287 288 291 298 300 304 307 309 309 310 310 311 311 311 312 311 312 312 312 312 311 311 311 310 309 309 309 309 309 308 308 308 308 309 309 309 309 309 309 309 309 309 309 309 310
323 321 318 317 314 312 310 308 307 305 303 303 301 298 296 295 295 293 293 293 292 292 292 291 290 290 290 289 289 289 289 289 289 289 289 289 289 288 288 288 288 288 289 288 295 298 300 304 306 307 308 309 310 311 312 312 312 311 311 311 311 310 310 309 309 309 309 309 308 308 307 307 308 308 308 308 308 308 308 308 308 308 309 309 309
321 319 317 315 313 311 309 308 306 304 303 302 299 296 296 296 296 294 292 292 292 291 291 291 290 290 289 289 289 289 288 288 289 289 288 288 288 288 288 288 288 289 291 287 288 293 297 297 300 302 305 306 308 309 311 311 311 311 310 310 310 310 309 309 309 309 308 307 306 306 307 307 307 307 308 308 307 307 307 307 307 308 308 308 308
317 317 316 314 312 310 309 307 306 304 302 300 298 298 297 296 294 294 294 292 291 290 290 290 290 290 289 288 288 288 287 288 288 288 289 287 287 287 288 288 290 292 287 287 287 287 293 294 295 297 298 301 304 306 307 309 309 310 310 310 310 310 309 308 307 306 305 306 306 306 306 306 306 307 307 307 307 307 307 307 307 307 307 308 308
315 315 314 313 312 310 308 308 306 303 301 299 298 297 296 295 294 295 294 292 290 290 289 289 290 290 288 288 288 287 287 288 289 289 287 287 287 287 287 287 287 287 287 287 287 286 286 289 292 292 293 296 299 302 304 305 307 309 310 309 310 310 307 306 305 305 305 305 305 305 305 305 306 306 306 306 306 306 306 306 307 307 307 307 308
314 313 312 311 310 309 308 307 305 303 301 298 297 297 296 296 295 294 293 291 290 290 290 290 289 289 288 288 288 288 288 288 288 287 286 287 289 289 288 287 287 287 287 286 286 285 285 284 284 284 286 292 294 297 299 302 304 306 307 309 308 308 307 306 305 305 304 304 305 305 305 305 305 305 305 305 305 306 306 306 306 306 307 307 307
312 312 311 310 310 309 308 307 306 304 301 297 297 297 297 296 295 293 292 291 291 290 289 289 288 288 288 287 288 288 288 287 287 286 287 286 287 287 286 286 286 286 286 286 286 285 285 284 285 283 284 288 291 292 294 296 299 303 305 307 307 306 307 305 305 304 304 304 304 304 304 304 304 304 304 304 305 305 306 306 306 306 306 306 306
310 310 310 309 309 309 307 306 305 303 301 300 298 298 298 296 294 293 291 289 289 289 289 288 287 285 286 285 286 287 289 286 286 286 286 285 286 286 286 286 286 286 285 286 285 285 284 284 283 283 283 282 285 288 290 293 294 300 303 304 305 305 306 305 304 304 303 304 304 304 304 304 304 304 304 304 305 305 305 306 305 306 306 307 306
309 309 309 309 308 308 307 305 304 302 301 300 300 299 297 295 293 291 291 289 288 289 289 287 285 283 283 284 284 285 286 285 285 285 285 286 286 286 286 286 286 285 286 285 285 284 284 284 283 283 283 282 283 282 283 285 289 295 299 300 303 305 305 305 304 304 303 303 303 303 303 303 303 303 304 304 304 305 305 305 305 306 305 306 306
307 308 309 309 308 307 306 305 303 302 301 300 300 298 296 294 292 291 289 288 289 290 288 288 284 285 285 283 280 280 285 283 284 285 286 285 286 286 286 285 286 285 285 285 284 284 285 284 283 282 282 282 281 281 282 285 287 290 294 296 298 301 303 305 304 303 303 302 302 303 302 303 303 303 303 304 304 305 304 305 305 305 305 305 305
306 308 309 309 308 307 306 305 303 303 302 301 300 298 296 293 292 291 290 288 288 288 289 291 287 286 281 283 281 281 279 281 282 285 285 285 286 285 286 285 285 285 285 284 284 284 283 283 282 282 282 281 281 281 282 282 287 288 290 292 295 297 300 303 303 303 302 303 302 302 301 302 302 302 303 303 304 304 304 304 304 303 304 304 305
304 306 308 308 308 307 306 305 304 303 303 301 299 298 296 294 293 291 290 289 288 288 290 292 290 290 287 284 282 284 282 281 282 282 284 283 284 284 286 285 284 285 284 284 284 284 283 282 282 281 281 281 281 280 281 281 282 285 285 290 294 295 295 300 302 302 302 302 302 301 301 301 300 301 302 303 303 303 304 303 303 303 303 303 303
302 304 306 308 308 307 306 305 304 304 303 301 300 297 295 294 293 292 291 290 290 290 289 290 292 291 290 289 288 284 282 281 282 278 284 284 284 284 284 284 283 284 284 283 283 282 284 283 281 281 281 280 280 280 280 281 283 281 283 288 294 295 295 296 299 300 300 300 301 300 300 301 300 300 301 302 303 302 302 302 302 303 303 303 303
301 303 304 307 308 307 307 306 305 304 303 302 300 297 295 294 294 293 292 292 290 289 289 289 289 289 291 290 289 290 285 283 279 279 277 281 282 282 283 283 283 283 284 283 283 282 282 283 281 281 280 280 280 280 279 281 283 284 287 291 294 294 294 294 294 296 297 298 299 300 300 300 299 300 301 301 302 302 302 302 302 302 302 301 301
299 301 303 304 306 307 307 306 305 304 302 302 300 298 296 296 294 294 293 292 291 290 290 289 290 289 288 287 288 288 286 285 284 280 278 278 279 282 282 282 282 282 283 282 282 282 281 281 281 280 279 280 279 279 279 280 279 279 282 291 293 294 294 294 294 293 294 295 297 298 299 299 299 299 300 301 301 302 301 302 301 301 301 301 301
298 299 301 303 303 305 305 305 305 304 302 302 299 297 296 295 294 295 294 293 292 292 290 289 289 287 286 286 286 286 286 285 285 284 279 278 278 278 279 282 281 281 281 281 281 281 281 281 282 281 282 280 279 279 279 279 279 279 285 289 292 294 293 293 293 293 293 293 295 295 297 298 298 299 299 300 300 301 301 301 301 301 300 301 301
297 298 298 301 302 303 303 303 302 301 299 300 298 296 296 295 295 295 294 294 293 292 291 289 289 287 286 286 284 283 282 283 282 281 281 280 278 278 279 279 278 280 281 280 281 281 281 281 280 280 279 278 279 278 279 279 280 281 283 287 289 291 292 292 292 292 292 292 292 293 295 296 297 299 299 299 300 301 301 300 300 300 300 299 299
295 296 297 298 300 300 300 299 297 297 297 297 297 296 296 295 294 293 293 293 291 291 291 289 287 287 286 285 284 284 282 280 281 281 279 278 279 279 280 280 280 278 280 281 281 280 280 280 279 279 278 278 278 279 278 279 283 284 285 285 287 288 290 291 292 292 292 292 292 292 293 293 295 296 297 298 299 300 300 300 300 300 300 299 299
294 294 294 295 296 298 297 295 294 294 295 295 295 295 294 293 292 292 291 290 289 289 288 286 287 286 285 284 283 284 284 283 283 282 282 281 281 280 280 279 280 279 281 280 280 280 279 279 279 279 279 278 279 280 280 279 280 284 283 283 285 287 288 289 291 292 292 291 291 291 292 293 293 294 294 296 297 299 299 300 300 300 300 299 299
293 293 292 293 294 295 294 293 292 293 293 293 293 293 292 292 291 290 289 288 288 288 287 286 286 284 283 283 283 283 282 282 283 282 281 281 281 279 278 278 277 278 278 279 278 279 280 279 279 278 278 279 280 279 279 279 279 282 283 282 284 285 286 287 289 291 291 291 291 291 291 292 292 293 294 294 295 297 298 298 299 300 300 299 299
292 292 292 293 293 294 292 291 290 291 291 291 291 291 291 290 289 289 288 287 287 287 286 284 284 283 283 282 281 281 281 282 282 281 281 281 279 279 279 280 277 279 278 278 278 278 279 279 279 279 278 278 278 279 278 278 278 283 283 281 281 283 285 286 289 290 291 290 290 290 290 290 291 292 292 293 294 295 296 297 298 298 298 299 299
291 291 292 292 292 291 290 290 290 290 290 290 290 290 289 289 288 287 287 287 286 285 284 284 284 282 281 281 281 281 280 282 280 281 281 280 280 279 279 278 278 277 277 277 277 277 277 278 278 278 278 278 277 278 278 277 281 283 282 278 277 282 283 286 289 290 290 289 289 289 289 289 290 291 291 291 292 292 294 295 295 296 296 296 296
292 292 292 292 291 290 289 289 289 289 289 289 289 289 288 287 286 286 286 287 285 284 283 283 282 281 281 280 280 280 280 281 281 281 280 280 280 279 278 278 276 274 275 276 277 277 278 277 278 278 278 277 278 277 280 280 279 282 281 277 277 278 282 285 288 289 289 289 288 288 288 289 289 290 290 290 290 290 291 291 291 291 292 292 292
291 292 291 290 290 289 288 288 288 288 288 288 287 287 286 285 285 285 284 283 284 283 282 282 281 281 280 280 280 280 280 280 280 280 281 280 280 279 278 278 277 274 273 273 274 276 278 277 276 278 277 277 277 278 277 276 280 280 277 277 276 276 281 285 287 288 288 288 288 288 288 288 289 289 289 289 289 290 291 291 290 291 291 291 291
291 291 290 289 288 288 287 287 286 286 286 286 285 285 285 284 284 284 283 283 282 282 282 282 281 281 280 280 279 279 279 279 279 279 279 279 279 279 278 278 277 277 274 273 273 275 277 278 276 276 277 277 277 278 277 276 282 280 278 277 276 276 283 284 284 286 286 287 287 287 288 288 288 289 288 289 289 290 290 290 290 290 291 291 291
289 289 289 287 286 286 286 285 285 285 285 285 284 284 284 283 283 283 282 282 282 281 281 281 281 280 279 279 279 279 279 279 279 279 278 279 279 279 277 278 278 277 276 274 272 275 276 277 277 277 277 276 277 276 278 277 280 280 277 277 276 281 282 281 283 284 284 285 285 286 287 288 288 288 288 288 288 289 290 290 289 290 290 289 290
288 288 287 286 285 285 285 285 284 284 284 284 284 283 283 283 282 282 282 281 281 281 280 281 281 280 279 278 278 279 279 278 278 278 278 278 278 278 278 278 277 276 276 275 273 273 276 276 276 276 276 276 276 276 275 277 280 282 278 277 277 282 279 277 281 282 283 284 285 285 286 287 288 288 288 287 288 288 288 288 289 289 288 288 288
287 286 286 285 285 285 284 284 284 284 284 283 283 283 282 282 281 281 281 281 280 279 280 279 279 279 279 278 278 278 279 278 278 279 279 278 278 278 278 278 277 276 276 275 274 274 274 277 276 277 277 275 275 276 275 276 276 277 281 277 277 276 276 277 277 281 282 283 284 284 285 286 287 287 287 286 286 287 287 288 289 287 287 287 287
286 286 285 285 284 284 284 283 283 283 283 283 282 282 281 281 281 282 280 280 279 278 278 278 278 279 278 278 277 278 279 279 279 279 279 279 278 276 276 277 276 276 275 275 273 274 272 274 275 277 275 276 273 276 275 276 276 277 276 276 277 276 276 276 276 277 282 283 283 284 285 285 286 286 286 285 286 286 287 288 286 286 286 286 285
285 285 284 284 284 283 283 283 283 282 282 282 282 281 281 281 280 280 280 279 279 278 278 277 277 278 277 277 277 279 280 279 278 278 278 278 277 276 275 275 275 275 275 274 273 273 273 273 274 274 274 275 275 274 276 277 278 277 276 276 276 277 277 277 277 277 281 282 283 284 284 284 284 284 285 285 285 285 285 286 286 285 284 284 284
285 284 284 284 283 283 283 282 282 282 282 281 281 280 281 280 280 279 278 278 278 278 278 278 278 278 277 277 277 278 279 278 278 278 277 277 276 276 275 274 274 275 274 275 275 273 273 273 273 274 274 275 274 277 278 278 276 275 276 276 275 275 275 277 277 276 279 282 282 283 283 283 283 283 283 283 284 284 285 285 285 284 283 283 282
284 283 283 283 283 283 283 282 282 281 281 281 280 280 280 280 280 279 279 278 278 278 278 279 280 278 277 277 277 278 278 277 277 277 277 277 276 276 275 275 275 274 275 275 274 274 273 273 272 274 275 274 275 275 276 275 275 275 275 274 274 275 275 275 276 277 280 281 281 281 281 281 282 282 282 283 283 283 284 283 283 283 282 282 281
284 283 284 283 283 282 282 282 282 281 281 281 281 280 280 280 279 279 278 278 278 278 278 278 279 278 277 277 278 278 278 277 277 277 277 276 276 275 275 275 275 274 274 274 274 274 273 273 273 273 274 274 274 274 274 275 275 274 273 274 273 274 274 273 274 276 276 276 275 276 279 280 280 281 281 281 282 282 282 282 282 281 281 280 280
284 283 283 283 282 282 282 281 281 281 281 280 280 280 280 280 279 278 278 278 278 278 278 278 278 278 278 278 278 278 278 278 277 277 277 277 277 275 275 275 275 274 274 274 274 274 274 273 273 274 273 274 274 273 274 276 275 274 273 273 272 273 273 273 273 274 275 275 278 280 279 278 279 278 279 280 280 281 281 281 280 280 279 279 280
284 283 283 282 281 281 281 281 281 281 280 280 280 280 280 280 279 279 279 278 278 277 277 277 278 278 278 278 278 278 278 278 278 278 277 277 277 275 275 275 275 274 274 274 274 273 273 273 273 272 273 273 273 275 275 274 273 273 274 272 270 271 272 272 272 272 274 274 273 273 276 276 276 276 278 278 278 279 279 278 278 278 278 279 281
285 283 283 282 281 281 281 281 281 281 281 281 280 280 280 279 279 279 278 278 278 278 278 278 278 278 278 278 278 278 279 281 282 281 280 280 277 276 275 275 275 275 274 274 274 273 273 273 273 274 273 273 274 273 272 272 272 271 271 272 271 272 272 271 272 273 274 272 272 272 272 273 272 272 272 272 273 275 275 277 276 276 278 280 281
284 283 282 282 281 281 281 281 281 281 281 281 282 284 284 280 279 279 279 279 279 278 278 278 277 278 278 278 279 281 282 282 282 283 283 283 282 278 276 275 275 275 274 274 274 273 273 272 273 272 272 272 272 273 273 273 273 272 272 271 270 270 270 270 271 272 273 272 271 270 271 272 272 271 271 271 272 274 273 272 272 275 278 280 281
283 283 283 282 281 281 281 281 280 281 281 281 284 287 286 285 280 279 278 278 279 278 278 277 277 277 277 278 279 281 281 281 281 283 284 283 283 282 281 280 279 276 274 273 273 274 273 272 272 272 272 272 272 273 273 273 273 273 271 270 270 270 269 267 267 270 274 272 270 270 270 272 271 270 270 271 271 272 272 272 277 278 278 280 281
283 283 282 282 282 281 281 280 280 280 280 283 287 288 287 286 284 280 279 279 279 278 278 278 277 277 277 277 278 278 278 278 278 280 281 283 283 283 282 282 281 281 280 276 274 273 272 272 271 272 271 272 272 273 273 273 272 271 270 270 269 269 268 268 269 268 271 272 270 269 269 271 271 270 269 270 271 271 272 275 277 278 279 280 280
284 283 282 282 282 281 281 280 280 280 279 285 288 289 288 287 285 282 280 279 279 278 278 278 278 277 277 277 277 277 277 280 278 277 278 279 282 282 282 282 281 282 282 282 281 276 274 273 271 271 272 272 272 273 273 272 274 270 269 268 269 269 269 269 270 270 271 272 270 268 268 269 270 269 268 270 270 271 271 274 276 278 279 279 280
284 283 282 282 282 281 281 280 280 279 278 284 289 289 288 288 286 283 279 279 279 279 278 278 278 278 277 277 276 276 277 278 277 277 276 276 277 278 278 278 278 279 281 282 281 280 278 274 273 272 273 275 273 273 274 275 271 269 268 268 267 268 269 270 272 271 272 272 269 268 267 268 268 268 268 269 270 270 270 273 276 277 278 278 279
284 283 283 282 282 282 281 281 280 279 279 285 288 289 288 288 287 284 279 279 279 278 278 278 278 278 278 278 277 277 276 277 277 277 276 276 276 276 276 276 277 277 277 277 278 278 278 277 274 274 274 275 275 275 275 274 272 271 270 269 270 271 272 272 271 271 270 272 271 269 264 267 268 267 268 268 269 269 270 272 275 276 277 277 278
284 284 283 283 282 282 281 281 280 279 279 286 288 288 288 288 287 281 279 279 279 278 278 278 278 278 278 278 277 277 276 276 278 281 279 277 276 274 275 275 276 276 277 278 280 280 278 277 276 276 275 276 279 276 274 273 272 273 274 273 272 271 269 268 266 265 266 269 271 268 265 266 268 267 267 268 268 267 269 269 273 274 275 276 277
284 283 283 282 282 282 281 280 280 279 279 284 287 287 288 288 285 279 279 279 279 278 278 278 278 278 278 278 278 277 277 276 279 282 282 279 275 274 274 274 274 274 275 277 280 282 282 282 282 282 282 282 282 283 282 282 280 276 273 271 269 269 267 265 266 266 265 267 269 270 267 265 266 266 266 267 267 267 267 268 268 272 274 275 275
283 283 283 282 282 282 281 280 280 280 279 282 287 288 288 288 283 279 279 279 278 278 278 278 278 278 278 280 279 277 277 276 280 282 283 280 275 274 273 273 271 271 272 274 274 275 280 281 282 282 282 282 282 283 283 283 282 278 271 269 270 268 266 265 264 265 266 266 267 269 262 263 264 264 264 265 265 264 266 267 268 269 272 272 273
283 283 283 282 282 281 281 281 281 280 279 281 286 287 287 287 283 280 279 278 278 278 277 277 278 278 277 279 280 279 278 278 281 282 283 281 276 274 273 272 271 270 271 271 271 271 270 269 271 273 275 278 278 277 277 280 280 277 274 272 272 269 267 267 265 263 262 262 268 268 264 263 264 263 263 261 261 263 265 266 266 266 267 268 268
Wind_Speed
8 8 7 7 6 8 7 6 6 7 8 8 7 7 6 6 7 7 7 7 6 7 7 8 8 8 8 9 8 8 8 9 9 9 8 8 9 15 20 22 22 22 22 23 23 24 24 24 25 24 24 25 24 24 25 25 26 26 26 26 25 25 25 24 24 23 23 25 25 24 24 25 25 25 25 24 24 25 25 25 25 25 25 25 25
8 8 8 6 7 7 6 6 6 6 7 8 7 7 7 7 6 7 8 7 6 6 7 8 9 8 8 8 8 7 6 6 7 7 8 8 9 11 23 21 23 23 23 23 23 23 23 23 23 23 23 23 23 24 24 24 24 24 25 25 24 23 23 23 22 23 24 24 24 25 25 24 24 24 24 23 24 24 23 23 25 26 25 25 25
7 9 7 7 7 6 6 7 6 6 7 7 7 7 7 7 6 7 8 7 6 6 7 8 8 8 7 8 7 7 7 6 6 6 6 7 8 9 13 23 23 23 24 25 24 24 23 22 22 21 22 22 22 22 24 23 23 23 23 23 22 21 21 21 21 22 23 24 24 24 23 23 24 24 24 24 25 24 24 25 25 26 26 26 26
9 8 8 7 7 7 7 8 7 6 6 7 8 8 7 7 7 7 7 8 7 6 6 8 8 7 7 8 7 7 7 7 7 7 6 6 6 7 8 10 21 24 23 24 24 24 23 22 21 21 20 21 22 21 21 21 22 22 20 21 21 20 20 20 22 22 22 23 23 23 23 23 24 23 24 25 24 24 25 25 25 24 24 24 24
4 7 9 7 8 8 8 8 7 7 7 9 10 8 8 8 7 6 7 7 8 7 6 7 8 7 7 7 7 8 7 7 7 7 7 6 6 6 6 7 9 16 22 23 24 24 23 23 21 21 21 20 20 20 20 20 19 20 20 20 21 21 21 21 22 22 22 23 23 23 23 23 23 24 24 24 24 24 24 24 23 24 25 25 26
8 7 7 8 7 8 9 8 8 9 9 10 10 7 7 8 8 6 6 8 8 6 7 8 7 7 8 6 7 7 7 8 7 7 7 7 6 6 6 6 7 7 9 19 23 23 23 23 22 21 20 20 20 19 20 20 20 20 20 21 21 22 22 22 23 23 24 24 24 24 24 24 25 24 24 25 24 24 24 24 25 25 24 24 24
8 9 7 8 8 8 8 8 9 9 9 7 10 6 7 9 7 7 6 8 8 6 7 7 7 8 7 6 7 7 7 7 7 7 7 6 6 6 7 6 6 6 7 7 11 20 22 22 22 22 21 21 20 20 20 20 20 20 21 21 21 22 22 23 23 24 24 25 25 25 25 25 25 26 26 26 25 26 25 25 25 25 25 25 26
9 9 9 8 8 9 8 9 11 9 8 9 8 8 7 7 6 7 9 8 8 7 6 7 7 7 6 6 6 7 7 7 7 7 6 6 6 6 7 7 7 7 7 7 7 10 19 20 21 21 22 21 21 21 21 21 20 20 20 20 21 22 22 23 24 24 24 25 25 25 25 25 25 25 25 25 25 25 25 25 24 24 24 24 24
7 7 9 9 8 9 9 11 10 10 9 9 9 7 8 7 6 5 6 8 9 9 7 7 7 7 7 8 7 7 7 6 6 6 5 6 6 6 7 7 7 7 7 7 7 7 12 18 18 19 20 21 21 21 21 20 20 20 20 20 21 22 23 23 24 24 24 24 23 23 23 23 24 24 24 24 24 24 25 25 25 24 25 26 26
9 8 7 8 9 9 10 10 10 9 9 9 9 8 8 9 9 5 6 8 8 9 8 7 6 6 7 7 6 7 6 6 6 6 6 6 7 7 7 6 6 6 6 6 6 6 6 10 14 15 18 19 19 18 19 19 19 19 20 20 21 22 22 22 22 22 22 22 22 22 23 23 24 24 24 24 24 24 25 25 24 25 25 25 25
8 9 9 9 9 9 10 10 9 9 9 10 10 9 9 8 9 9 6 6 8 7 8 7 7 7 7 7 7 6 6 6 6 6 6 6 6 6 6 6 6 5 6 6 5 6 6 6 6 6 7 16 15 16 16 17 18 19 20 20 21 21 21 20 20 20 20 20 21 22 22 23 23 24 24 24 24 25 25 25 26 26 25 25 25
8 9 9 9 10 10 10 9 9 9 9 9 10 9 11 11 9 10 10 8 7 7 8 9 9 9 8 8 7 6 6 5 5 5 5 5 5 5 6 5 6 5 5 4 5 5 6 5 5 5 5 9 15 14 13 14 17 19 20 20 20 19 19 18 18 19 19 20 21 21 22 23 22 23 24 24 24 25 25 26 26 26 27 27 26
8 9 10 9 9 9 9 9 9 8 9 8 9 10 9 9 9 8 12 11 7 6 6 9 11 8 7 7 7 5 6 5 5 5 5 5 5 5 3 5 4 5 5 5 5 5 5 5 5 5 6 5 6 11 13 14 17 19 21 20 19 18 18 17 18 19 19 20 20 21 22 22 22 23 24 24 25 25 25 25 26 27 26 26 27
8 9 10 10 10 9 10 11 11 9 9 9 8 9 10 9 9 8 6 11 8 8 9 9 4 8 8 5 4 4 4 4 4 4 4 4 4 4 3 3 4 4 5 6 5 5 5 5 6 6 6 6 5 4 6 7 10 19 20 20 19 18 17 17 18 19 19 20 20 20 21 21 22 23 24 25 25 25 26 26 27 27 27 27 27
8 9 10 10 11 10 10 10 10 10 11 10 9 10 10 11 11 12 9 4 7 7 9 2 8 6 6 8 3 3 0 2 3 3 3 3 4 4 3 3 5 5 5 5 5 5 4 5 5 5 4 4 5 5 5 6 9 17 18 18 18 17 17 17 18 19 19 20 20 20 21 21 22 23 23 25 25 25 26 26 25 26 27 28 28
6 8 8 8 10 10 10 10 10 10 11 11 11 10 10 10 9 10 11 11 7 7 7 4 9 12 5 3 5 4 4 2 2 1 3 3 4 3 3 3 4 5 5 5 5 5 4 4 4 4 4 4 4 5 5 5 10 13 15 15 16 17 17 17 18 19 19 20 20 20 21 21 22 23 23 24 25 25 26 26 26 26 27 27 27
4 7 8 9 9 9 10 10 10 10 9 9 10 11 12 10 11 11 12 13 11 7 6 3 8 3 5 7 3 2 4 4 5 1 2 3 3 3 2 3 4 4 4 4 4 4 3 3 3 3 4 4 4 4 5 6 6 4 7 11 15 15 16 17 18 19 19 20 20 20 20 21 21 22 23 24 25 25 25 26 26 26 26 27 26
4 5 8 9 9 10 10 10 10 9 8 9 9 8 10 10 11 11 10 7 12 10 6 2 4 2 2 2 4 5 8 6 5 3 0 1 3 2 2 2 4 4 3 4 4 3 3 3 3 3 4 4 4 4 4 5 4 5 5 8 15 15 15 16 17 18 19 19 19 20 20 20 21 22 23 23 24 24 24 25 25 25 26 27 28
4 4 5 8 9 9 10 10 10 9 8 8 9 10 10 9 8 8 8 8 6 9 10 7 1 1 0 0 0 1 11 11 4 5 3 1 2 3 1 2 4 4 3 3 3 4 3 2 3 3 4 4 4 4 3 3 6 7 11 13 13 14 14 15 15 17 17 18 19 19 20 20 21 21 22 23 24 24 24 24 25 26 26 25 26
4 4 5 6 8 9 9 9 10 9 9 8 9 9 7 5 7 7 7 7 8 9 9 7 9 5 3 2 2 6 7 3 8 9 6 7 3 0 2 3 3 3 4 3 3 4 3 3 3 3 3 3 3 3 3 2 2 3 5 12 12 13 13 14 15 16 16 17 18 18 19 20 20 21 22 23 23 24 25 25 26 26 27 27 27
3 3 4 5 6 7 8 9 10 9 8 7 7 9 9 9 9 9 8 8 7 6 7 8 6 6 5 1 4 5 3 3 6 4 4 4 2 4 3 1 2 2 3 3 3 3 3 3 1 1 3 3 3 3 2 1 1 2 6 13 13 13 13 14 15 15 15 16 16 17 18 19 20 21 22 23 24 25 26 26 26 27 28 28 28
4 3 3 4 5 6 6 7 8 8 8 8 8 8 7 7 8 7 7 8 7 7 8 6 6 5 5 6 4 3 4 2 1 4 3 4 8 8 6 7 5 3 3 3 3 3 4 3 2 2 3 3 2 2 2 2 1 1 6 14 13 13 13 13 14 15 15 15 15 16 17 18 19 21 22 23 24 24 25 26 26 27 26 26 27
4 4 3 3 4 4 5 5 5 6 8 8 8 8 8 8 7 6 7 8 7 7 7 5 6 6 5 6 7 8 7 5 6 3 4 3 4 4 4 5 6 5 4 4 4 3 3 3 3 3 2 2 1 1 1 3 2 5 11 13 13 12 12 13 14 15 14 14 14 15 16 17 19 21 21 22 23 24 24 25 26 27 27 27 27
5 5 4 3 4 5 4 5 5 6 7 7 7 8 8 7 7 7 6 5 6 7 7 7 6 5 5 5 4 3 3 5 4 5 7 5 8 7 7 3 4 1 2 3 3 4 3 3 3 3 2 3 0 0 1 2 3 8 6 10 12 11 11 12 13 14 14 13 13 14 16 17 19 20 21 22 23 24 25 25 26 27 28 28 28
6 7 6 6 6 6 6 6 6 6 7 7 7 9 8 8 7 6 6 6 7 7 7 6 7 7 6 5 6 6 5 3 6 6 5 7 8 7 2 3 4 3 2 4 2 2 4 4 4 3 3 2 1 1 1 2 3 5 8 6 12 10 10 11 13 14 13 13 14 15 17 18 18 19 20 21 23 24 25 26 26 27 28 28 29
9 8 7 7 6 6 6 6 5 6 7 8 8 8 8 8 7 7 6 5 6 6 7 6 7 5 6 7 6 6 5 5 5 6 6 8 7 8 5 1 3 4 2 3 2 3 1 3 3 3 3 3 1 0 1 1 1 4 7 5 7 10 11 11 13 14 13 14 15 16 16 17 18 19 20 21 22 23 25 25 26 26 27 28 28
8 7 8 7 7 7 6 7 7 7 7 7 7 7 7 7 7 7 6 6 7 7 7 8 8 7 6 7 7 6 6 5 6 5 5 6 8 8 8 5 1 2 3 2 2 2 3 1 3 3 4 3 1 0 1 0 3 2 5 3 3 9 11 12 14 15 14 14 15 16 16 16 17 18 19 20 22 23 24 25 25 26 27 27 28
7 8 8 8 8 8 7 7 7 7 7 8 8 8 8 8 7 7 7 5 8 8 7 8 8 8 8 7 8 5 4 6 6 6 6 6 6 5 7 7 8 3 2 2 1 1 3 2 1 2 3 3 2 2 1 0 0 2 3 2 3 4 10 13 15 14 14 15 15 15 16 16 17 18 19 20 21 22 23 24 24 26 26 26 27
7 8 9 7 8 8 8 8 7 7 7 7 8 7 8 8 8 8 8 6 8 8 7 8 7 8 7 7 7 6 5 5 5 6 6 6 6 4 4 7 6 6 3 3 4 4 5 3 4 3 3 2 3 1 1 1 2 1 0 2 3 4 8 13 15 15 15 15 15 16 16 17 17 18 19 20 21 22 23 24 24 25 26 26 26
8 8 8 8 8 8 8 8 7 7 8 7 7 8 9 8 8 8 8 9 9 7 7 8 8 8 8 7 6 7 4 6 6 5 5 5 5 5 6 3 4 7 4 5 4 2 2 2 1 3 3 3 3 2 2 2 4 1 1 2 3 4 9 12 14 14 14 15 16 16 16 17 17 18 19 20 21 22 23 24 25 25 25 26 26
9 9 9 8 8 8 8 8 8 8 7 8 8 9 9 9 8 9 8 9 9 8 6 8 7 8 9 8 6 7 5 6 6 6 4 5 6 5 4 3 3 5 6 4 3 2 4 3 1 1 5 5 4 2 1 2 4 3 2 3 3 6 9 7 13 14 14 14 15 16 17 17 18 18 20 21 22 23 23 24 24 25 25 25 25
9 9 10 10 9 9 8 9 9 8 9 8 9 9 9 9 9 9 8 9 10 10 7 6 6 7 8 8 6 7 6 6 6 5 5 4 4 5 4 4 3 3 5 4 5 5 1 3 4 3 5 3 4 2 2 2 3 5 3 3 3 6 4 3 8 14 14 14 14 16 18 18 18 19 20 21 22 23 23 24 25 25 25 24 24
9 10 10 10 9 9 10 10 10 10 9 9 8 9 9 9 8 9 9 9 10 8 9 8 5 7 7 8 7 6 6 7 6 6 5 5 4 4 3 4 4 3 4 4 5 4 2 1 4 4 5 4 1 4 3 2 1 2 2 2 2 3 3 5 5 9 14 14 15 15 16 18 18 19 19 21 22 23 23 24 24 24 24 24 24
9 10 10 9 8 9 9 10 10 9 9 9 8 9 10 10 9 7 9 10 10 9 8 9 7 6 7 8 7 7 6 7 7 6 6 5 5 5 4 5 5 4 3 3 4 5 5 1 0 0 2 3 1 2 3 1 2 2 3 3 2 3 4 5 6 6 12 14 15 16 16 16 18 19 20 21 22 23 24 24 23 23 23 23 23
7 8 9 9 9 9 8 10 10 9 10 9 8 9 10 11 11 9 9 10 11 11 10 9 9 8 8 7 8 7 6 7 6 5 5 5 5 5 5 4 5 4 4 3 3 5 4 3 2 2 2 2 2 1 0 1 2 2 3 3 3 3 3 5 6 5 9 13 15 15 16 17 16 18 19 21 23 23 23 23 23 23 23 22 22
8 7 8 9 9 10 10 10 10 10 10 9 9 9 11 11 11 11 10 9 10 11 11 11 10 9 9 8 7 7 6 7 7 7 6 5 5 5 5 4 4 4 4 3 2 3 3 3 2 2 1 1 1 0 0 1 2 3 3 4 3 4 4 5 5 4 6 13 14 14 16 16 16 16 18 20 22 23 23 23 22 22 22 22 22
8 8 7 7 9 10 11 11 11 11 11 11 10 9 8 9 11 11 10 9 10 10 11 11 10 10 9 9 9 8 8 8 7 7 7 7 6 6 6 4 4 3 3 3 3 2 3 3 2 1 0 1 1 2 2 2 4 2 2 2 3 5 6 5 4 4 7 11 12 14 15 16 16 16 18 19 21 23 23 22 21 21 22 22 22
9 9 10 9 10 10 9 10 11 12 11 11 11 11 11 10 9 9 9 9 9 9 9 9 9 8 9 9 9 9 9 10 9 8 7 8 6 6 6 5 5 3 4 4 3 3 3 3 3 4 1 2 2 2 2 2 4 4 3 3 3 5 5 3 3 3 3 3 3 4 7 9 10 16 18 19 21 23 22 21 20 21 22 22 22
11 10 9 10 8 10 9 9 10 11 11 11 11 11 11 11 11 10 10 9 9 8 8 9 8 8 8 9 9 10 10 9 9 9 8 8 7 7 7 6 5 5 5 5 4 4 4 3 3 4 4 3 3 4 2 1 3 3 3 6 5 3 1 4 6 4 3 5 7 12 10 9 13 12 16 19 20 21 21 21 20 21 22 23 23
11 11 11 11 8 8 9 9 9 10 11 11 10 10 11 11 11 10 10 10 9 8 8 9 9 8 8 8 9 9 8 7 8 8 9 9 6 6 6 6 6 6 6 5 5 5 4 4 5 5 4 4 3 2 1 1 2 3 1 3 6 6 6 1 2 6 6 6 6 3 4 7 9 12 15 16 17 19 20 19 19 21 23 23 24
9 9 9 10 10 10 9 9 10 9 11 11 10 11 12 11 10 11 11 12 12 11 10 9 8 8 7 7 7 7 8 8 10 9 7 7 8 7 6 7 7 7 5 4 5 4 4 4 5 4 4 5 4 2 3 3 4 5 2 2 5 4 4 5 4 3 6 5 4 5 4 5 9 8 7 7 6 12 12 16 15 20 21 23 25
9 9 9 10 11 12 11 10 9 9 9 8 11 17 13 13 13 11 10 10 10 10 11 10 8 7 7 6 7 11 12 10 9 11 12 12 10 8 8 8 7 7 7 6 6 6 5 5 6 4 5 6 5 4 4 3 1 1 3 3 5 4 4 6 6 3 2 4 7 7 6 4 8 9 7 7 6 7 6 7 8 14 21 25 24
11 11 11 11 11 10 11 11 11 10 9 8 16 16 16 15 11 11 11 11 10 10 10 11 10 9 7 7 6 9 9 8 7 8 10 12 12 12 11 10 9 9 8 7 7 6 6 6 5 4 5 6 5 3 4 3 3 3 4 2 2 3 4 6 9 4 1 4 6 8 10 4 6 8 7 7 6 6 6 8 17 22 25 24 24
10 9 12 13 12 11 10 11 11 10 9 11 14 15 16 17 13 12 10 10 10 10 10 10 9 9 9 7 6 6 6 7 6 6 7 10 11 10 10 10 13 12 10 8 6 5 6 6 6 6 4 6 3 3 3 2 3 3 2 1 2 3 5 5 6 7 1 3 7 9 12 5 5 7 8 6 6 6 8 15 21 23 24 24 23
10 12 12 12 12 11 11 12 11 9 7 12 13 14 16 17 16 12 9 10 9 10 10 10 10 9 8 8 7 6 5 9 7 6 6 6 9 11 10 9 9 12 13 13 9 7 5 7 7 6 7 4 4 3 2 2 2 4 3 3 3 4 5 6 7 6 3 2 6 9 12 7 4 7 7 6 5 6 8 13 20 22 24 23 22
11 11 10 12 11 12 12 12 11 10 9 13 16 16 17 17 17 12 9 11 10 10 11 11 10 10 10 9 8 7 6 7 7 7 7 7 6 6 6 6 6 8 11 12 13 12 9 8 6 8 5 5 5 3 3 3 3 4 3 5 3 4 5 7 5 6 6 3 6 8 11 8 3 6 8 7 4 6 7 14 21 22 22 21 20
11 12 12 12 12 10 11 11 10 10 10 15 16 16 16 18 18 12 8 9 8 9 9 8 9 9 9 8 8 8 7 8 8 9 8 8 7 7 7 7 7 7 6 7 7 6 7 6 7 7 6 5 4 4 4 5 5 5 4 4 5 5 5 5 5 5 5 4 6 5 9 9 2 8 9 6 6 7 6 12 19 19 19 17 19
8 7 7 7 9 9 8 9 11 11 9 18 18 18 18 19 19 10 9 9 8 7 8 9 8 8 8 8 8 8 8 8 10 15 11 7 7 8 8 7 6 6 7 7 10 9 8 6 6 6 5 6 8 6 5 5 4 4 4 2 2 1 2 4 7 3 4 3 5 5 6 9 5 7 10 6 7 8 7 8 13 16 13 15 22
10 10 10 9 8 9 10 9 11 11 9 18 22 21 20 22 16 8 8 8 8 8 8 8 7 7 7 8 8 7 8 8 11 16 16 13 7 8 8 7 6 5 6 6 11 15 16 15 15 15 14 14 15 16 15 14 10 6 4 3 5 3 1 5 7 5 5 1 3 5 7 9 4 3 10 8 7 9 8 7 6 8 10 19 22
11 10 9 8 8 10 12 12 13 11 10 15 20 19 21 23 14 12 9 9 8 8 6 6 5 5 7 10 9 8 9 9 12 17 17 12 8 8 8 7 7 7 6 5 3 3 8 12 15 16 17 16 18 18 18 16 15 5 7 7 3 4 5 5 6 5 7 3 6 3 0 5 3 2 7 8 8 3 5 6 1 4 13 14 19
10 9 9 10 9 8 9 10 12 11 7 11 17 16 18 19 14 9 9 8 9 7 7 6 5 6 6 8 13 11 9 8 13 15 17 13 8 8 8 7 8 8 8 5 5 5 5 5 5 5 6 9 9 6 5 6 8 11 6 5 4 5 5 5 5 4 7 3 2 2 4 4 4 4 2 8 10 5 4 2 2 6 6 7 9
Wind_Direction
152 155 158 154 131 135 143 143 105 106 103 104 100 103 92 92 92 92 85 79 75 72 76 76 77 74 77 79 76 78 83 81 73 65 57 50 41 35 48 63 65 64 65 68 68 68 66 65 65 64 63 61 60 59 57 55 52 50 48 47 45 42 40 40 38 36 34 32 30 29 26 25 25 22 20 19 15 14 15 13 10 9 7 5 3
152 154 156 139 132 137 130 111 110 112 112 109 110 107 106 101 101 101 93 86 77 76 80 79 75 73 72 77 73 72 74 88 93 87 80 63 50 42 41 51 68 70 68 66 66 65 65 65 66 66 65 63 61 60 58 57 54 50 48 46 47 43 41 40 38 35 33 31 28 27 28 25 23 22 20 19 17 16 13 11 10 8 8 6 5
146 144 137 131 131 125 110 109 99 89 95 98 102 104 108 111 110 105 102 96 85 85 85 82 76 73 74 76 75 73 68 64 71 79 82 79 71 56 46 48 53 65 70 69 68 64 63 63 63 63 64 62 60 58 58 58 56 53 49 48 48 47 42 40 38 34 33 32 30 30 28 25 23 22 19 18 17 16 11 10 10 8 6 4 2
150 136 130 124 122 115 112 107 105 100 103 111 108 110 110 100 97 98 104 100 96 84 80 84 81 77 75 73 73 74 67 65 65 63 64 65 72 76 64 50 53 57 62 70 68 66 63 61 62 63 60 60 61 61 60 56 54 55 51 47 48 47 43 40 37 35 33 33 32 30 27 25 23 21 19 19 16 14 12 9 10 7 3 1 359
124 126 129 128 126 122 112 111 115 114 111 112 104 104 110 111 105 110 105 100 91 81 79 79 79 74 74 71 71 70 67 66 63 60 58 56 54 63 78 69 58 51 57 60 62 65 64 62 61 60 59 58 58 58 58 57 53 51 50 46 43 44 41 37 35 34 32 32 31 29 26 23 22 20 19 17 15 15 12 10 6 4 3 1 0
139 137 135 129 126 122 123 121 121 118 116 114 116 130 127 119 117 111 110 103 96 90 89 85 80 77 75 71 71 69 69 67 64 63 61 57 50 52 55 72 71 66 50 50 55 57 59 61 60 57 57 57 54 52 53 53 50 46 45 42 39 38 36 34 32 31 29 28 27 26 23 21 19 18 17 16 13 11 9 7 6 4 1 358 357
146 139 138 136 133 129 126 129 125 123 124 127 125 133 128 122 125 114 104 97 96 90 90 87 87 81 77 76 73 68 63 67 65 65 64 59 55 49 49 48 53 61 57 51 41 52 53 53 55 58 57 55 52 50 47 47 47 42 39 40 38 35 34 33 32 32 29 28 26 23 21 19 17 15 15 12 11 8 7 5 3 2 360 358 358
147 145 142 142 138 135 135 135 133 130 132 133 134 137 131 117 113 120 117 103 102 90 79 88 84 84 77 73 73 70 72 65 62 65 68 69 61 54 49 48 48 47 48 46 43 41 51 51 49 49 50 51 50 47 44 41 43 42 39 38 39 38 36 35 32 31 28 27 24 21 19 17 15 15 13 10 8 7 5 2 2 360 358 356 354
128 138 138 139 136 135 141 140 140 138 141 140 140 135 127 121 117 114 109 114 105 102 89 89 88 83 77 73 66 69 67 68 67 67 65 68 61 56 51 48 48 48 46 47 41 35 39 48 47 47 46 47 46 45 44 42 37 38 39 38 39 39 36 34 31 27 25 24 22 21 19 16 15 14 11 10 7 5 2 1 0 356 354 355 355
139 142 137 136 136 138 140 142 141 140 140 142 139 135 136 132 126 118 112 114 111 112 109 96 89 82 73 70 66 68 71 70 70 68 68 67 65 62 58 56 54 51 50 51 48 46 44 39 41 38 41 45 46 47 46 41 39 36 37 37 35 37 33 32 28 26 25 23 21 21 18 16 14 13 11 9 5 3 2 360 356 356 357 355 355
139 140 137 136 136 139 141 146 144 145 144 144 142 145 138 131 129 124 103 99 117 114 114 107 94 85 78 69 69 66 68 71 72 77 79 81 81 79 74 62 61 58 57 53 55 55 51 47 39 35 26 44 46 46 44 41 38 38 37 35 33 32 32 30 27 25 24 23 22 20 18 17 13 12 10 7 4 3 360 358 357 357 355 351 351
139 137 136 139 141 144 142 142 141 138 136 143 147 151 143 134 134 125 115 100 95 114 118 112 94 84 78 68 63 65 59 64 64 66 69 74 83 85 90 88 77 72 67 63 63 62 55 48 46 37 35 35 43 42 39 35 35 38 35 33 31 30 31 28 27 24 23 23 22 20 18 16 13 10 8 6 2 2 0 358 358 355 353 353 351
144 139 137 137 139 139 138 139 138 141 144 153 153 143 134 134 126 123 126 122 122 126 128 121 112 82 68 74 71 63 72 69 67 62 62 67 71 78 86 99 109 96 88 75 65 60 56 50 43 38 33 28 28 34 32 30 30 33 35 32 29 26 25 26 23 24 21 22 20 18 16 14 12 9 7 6 2 0 360 358 354 355 353 350 350
147 142 140 145 146 150 150 152 151 153 148 152 152 139 137 132 130 118 130 134 137 151 155 126 83 133 131 118 69 60 77 70 73 69 74 65 78 77 61 77 90 109 96 82 68 61 55 46 40 37 28 23 24 30 14 12 20 28 32 29 26 21 19 22 20 21 19 20 19 16 15 14 10 9 6 5 3 359 358 357 355 353 353 351 349
150 147 148 154 153 155 157 154 157 152 149 160 157 151 147 143 147 141 139 125 130 165 167 167 130 129 112 100 147 85 67 36 38 64 77 89 85 86 84 68 74 78 83 76 71 64 58 51 43 36 26 24 25 29 24 15 28 28 24 21 22 20 16 18 18 17 17 17 17 13 12 12 8 8 5 4 2 359 357 357 355 353 351 351 348
143 147 153 156 157 158 157 158 159 163 158 158 160 154 148 148 149 150 143 140 157 179 196 142 145 141 151 173 172 123 116 228 129 66 76 68 74 85 95 93 81 71 69 80 79 75 71 74 61 38 31 28 24 35 29 22 25 28 13 6 16 17 14 15 15 15 15 15 13 11 9 10 7 5 4 2 360 358 356 355 355 353 350 349 348
150 149 156 157 158 156 158 161 160 163 161 158 162 162 158 158 158 158 165 155 160 172 194 149 179 204 134 122 125 182 196 157 125 74 108 74 58 72 70 91 93 93 88 90 94 91 94 89 81 56 45 33 27 33 32 24 20 13 2 350 12 17 13 11 13 13 12 11 10 8 8 6 5 4 1 360 359 357 355 353 352 351 348 347 346
155 148 149 157 158 158 159 160 163 163 165 162 156 153 159 163 172 165 161 176 157 159 176 224 205 215 182 177 166 170 148 167 114 170 128 106 145 99 99 101 104 102 104 117 110 96 93 89 100 80 50 42 32 31 39 26 24 360 354 351 12 14 14 11 11 9 9 7 6 5 4 4 1 1 360 358 356 354 353 350 350 347 347 346 346
159 160 149 157 156 160 166 165 166 166 161 160 163 167 170 171 162 164 164 149 147 164 173 180 124 293 136 286 112 89 141 143 183 111 141 256 145 141 107 117 111 108 111 115 120 111 88 75 75 91 67 50 40 33 33 33 29 17 1 358 8 11 12 11 9 7 5 2 3 0 360 1 359 357 358 356 354 352 351 349 347 346 345 345 344
151 154 157 152 153 160 167 168 168 168 163 170 168 164 159 158 158 153 147 160 164 169 169 174 176 190 145 112 63 103 145 82 143 160 150 153 215 190 127 164 136 143 146 133 114 123 109 72 47 64 78 56 45 34 34 34 54 14 341 356 3 9 10 7 8 6 4 360 0 356 356 357 356 355 356 356 353 349 348 348 346 345 345 347 343
133 140 156 152 152 158 165 172 172 166 168 163 161 162 163 157 156 161 163 164 171 166 160 177 172 167 138 135 103 111 108 98 141 116 137 120 157 176 181 194 132 156 129 127 122 113 116 127 134 79 97 66 40 23 27 35 66 26 353 357 359 3 7 4 4 2 0 358 357 353 353 354 355 355 356 354 352 348 346 345 345 344 344 345 346
134 133 133 145 154 156 163 173 174 161 156 158 155 154 154 158 162 161 157 158 170 164 172 172 163 163 154 150 127 111 88 77 82 95 81 118 161 192 174 169 180 218 156 133 135 127 135 142 124 108 100 86 44 15 20 353 96 30 359 358 356 358 0 360 357 357 355 355 354 351 352 353 355 355 355 353 350 346 344 343 341 341 341 342 343
136 140 138 144 147 154 159 162 157 148 145 149 158 155 153 150 151 149 155 161 166 158 153 159 151 152 149 149 161 165 169 165 179 163 142 129 88 141 151 186 169 150 202 162 150 154 147 144 134 118 115 110 78 23 16 357 32 3 8 357 351 349 350 352 350 350 351 351 350 348 351 354 356 355 354 351 348 345 342 341 341 339 340 343 344
148 147 155 149 144 145 139 137 141 139 144 143 142 145 144 141 143 146 144 136 133 136 142 145 145 140 142 141 133 129 104 124 160 145 134 153 143 156 158 157 99 122 154 135 142 145 168 154 148 145 161 129 109 114 18 33 9 356 16 354 342 340 343 343 342 345 346 346 347 348 354 357 356 354 351 348 346 343 341 340 339 339 340 343 342
172 166 171 165 155 147 148 147 142 142 140 138 143 143 145 144 142 135 131 135 140 135 135 143 138 136 125 99 105 96 94 105 105 113 106 120 129 128 200 138 153 151 176 143 192 192 184 179 163 177 150 148 158 91 55 47 2 343 359 346 336 337 336 331 333 339 342 344 348 353 357 357 353 351 349 347 344 341 340 339 339 340 341 341 341
168 174 166 160 155 154 146 144 144 146 145 145 145 145 143 142 137 134 135 135 119 119 122 114 103 109 113 103 94 99 88 85 101 93 113 112 126 142 147 143 126 171 147 182 178 114 235 177 177 166 155 155 155 78 95 48 355 336 357 349 329 332 327 322 330 337 342 344 349 353 356 353 350 348 346 344 342 340 339 339 339 339 340 339 339
169 157 156 158 154 149 148 146 149 147 143 141 140 137 134 126 128 127 117 119 116 115 113 117 113 109 103 113 108 87 95 92 97 101 109 124 138 155 142 141 128 128 169 176 180 189 184 209 191 186 176 157 141 138 123 328 263 342 11 341 314 320 323 323 331 338 340 344 348 349 350 347 346 345 343 341 339 339 338 338 339 339 339 337 338
148 149 161 157 156 151 150 154 152 147 147 145 142 139 138 131 127 125 120 121 120 114 119 112 116 117 115 115 102 104 105 104 101 106 100 114 116 118 129 135 142 185 159 162 160 258 154 141 221 183 169 153 176 151 205 322 283 32 1 315 298 300 313 325 334 336 339 343 343 343 341 342 342 340 340 338 337 336 336 336 337 336 336 336 336
151 154 155 159 158 154 153 154 152 149 145 146 141 137 135 134 136 132 127 123 119 126 127 120 127 121 115 120 123 122 115 105 94 91 95 89 94 101 122 144 151 133 167 169 205 174 235 171 168 238 163 189 154 192 156 209 250 233 226 303 295 296 310 332 334 334 335 336 337 337 337 338 339 337 337 336 336 335 335 335 335 335 335 336 335
155 155 154 157 159 155 152 154 152 148 149 145 141 139 135 134 137 133 136 130 120 118 127 128 129 122 120 115 121 115 111 101 102 96 95 103 97 101 98 107 129 147 160 165 233 176 197 241 161 187 214 208 176 205 178 212 247 247 190 247 284 283 316 332 328 327 327 327 329 332 334 336 334 335 335 335 334 334 334 334 334 333 334 335 334
151 153 156 160 162 159 154 153 150 149 147 148 145 142 141 136 137 134 139 133 131 132 140 132 134 127 128 124 121 112 113 109 100 95 91 96 104 102 104 92 90 128 141 128 147 263 141 187 242 159 157 198 183 200 224 216 234 244 234 248 254 280 317 319 317 318 320 323 325 329 333 333 332 333 334 333 333 333 334 333 332 332 333 333 333
164 160 162 165 165 162 159 154 152 151 151 154 150 145 141 142 142 138 146 137 136 138 138 131 131 129 127 125 128 127 128 115 109 107 108 107 113 112 115 115 103 119 129 132 158 212 230 163 169 185 160 167 189 178 254 237 232 245 235 245 252 286 310 296 299 305 311 318 323 327 328 327 328 330 331 330 331 331 332 331 331 332 332 332 332
162 164 167 169 168 167 159 157 156 156 156 156 153 146 142 142 143 143 144 143 138 139 134 129 123 126 127 127 132 135 134 127 132 127 125 131 118 121 126 122 137 152 136 142 164 222 300 138 142 169 187 149 239 184 204 229 259 281 266 262 276 294 288 280 274 284 299 310 320 323 321 321 324 327 328 329 328 329 329 331 333 333 332 332 332
171 170 170 168 166 166 162 158 156 156 157 154 152 147 146 144 146 149 147 145 141 139 136 136 138 136 134 131 140 145 144 138 141 143 149 141 139 142 161 155 165 184 182 125 178 157 228 287 71 119 182 178 183 202 171 225 278 268 278 285 295 280 276 272 268 269 284 301 312 316 318 317 317 320 323 326 325 326 328 331 332 332 331 332 332
178 174 169 166 166 164 165 160 156 157 159 157 157 152 153 152 152 155 155 152 150 148 146 148 147 143 136 142 152 153 144 139 142 145 150 155 151 155 176 173 174 188 188 156 138 189 201 248 190 172 219 213 177 236 281 225 235 224 267 284 270 272 269 264 262 263 273 295 307 311 314 317 314 311 315 321 322 323 326 328 331 332 332 332 331
175 176 168 167 166 167 167 166 161 158 160 160 157 159 157 156 156 156 158 158 155 152 151 153 154 153 151 147 158 153 144 144 150 153 160 164 165 168 173 191 169 179 186 165 165 154 191 181 295 159 255 176 303 69 201 225 234 279 254 262 272 283 276 262 251 253 267 292 300 308 316 315 312 308 310 315 317 319 322 326 329 331 332 330 329
176 170 173 168 169 172 173 170 164 165 166 162 159 157 157 159 159 157 159 158 158 156 157 157 156 154 156 157 158 157 155 151 154 159 165 169 175 167 174 184 178 173 170 177 193 143 159 206 247 273 170 297 215 233 231 246 297 286 271 266 287 284 281 263 254 273 278 292 304 309 311 310 309 310 310 313 314 315 320 324 327 331 330 328 326
175 179 174 176 176 177 177 176 169 167 167 165 163 162 159 157 158 158 158 159 157 153 152 155 155 157 157 159 162 165 165 165 169 167 167 172 171 173 174 182 178 169 170 183 175 184 173 204 206 276 309 253 317 267 238 229 273 291 303 295 302 288 279 308 307 296 301 305 302 289 293 299 300 311 314 313 313 314 319 322 326 328 327 325 322
178 178 181 178 181 175 177 175 175 169 167 166 163 162 159 160 161 161 160 156 152 149 149 151 154 156 158 159 164 171 174 172 166 170 170 173 179 180 180 180 177 170 185 191 180 179 191 207 243 238 254 270 230 268 291 208 208 203 273 309 293 249 320 329 311 312 307 298 290 298 299 306 313 315 311 311 311 311 316 321 324 324 323 319 319
184 182 180 178 175 177 180 179 176 170 168 169 165 162 162 163 164 164 160 154 148 146 148 154 158 163 162 160 166 173 172 168 169 170 170 175 172 179 183 173 174 175 189 187 185 185 192 204 221 239 251 250 280 287 310 334 304 321 254 228 281 300 304 288 286 312 306 301 302 301 327 328 310 305 305 304 303 306 314 318 319 319 316 314 319
187 183 178 175 172 179 181 179 176 176 175 176 170 166 163 164 163 161 163 163 160 155 151 153 159 161 159 152 158 163 170 172 171 172 169 167 169 177 189 172 178 181 188 191 189 184 196 197 240 242 234 253 253 242 274 249 243 243 236 273 275 285 306 315 297 309 291 301 310 326 324 323 307 303 298 289 285 301 306 312 314 310 307 315 320
182 178 178 180 183 183 178 179 180 178 182 180 177 172 168 167 169 167 164 163 158 155 154 154 157 160 157 147 158 163 168 167 160 168 170 174 174 176 178 175 181 182 187 189 195 192 183 204 225 210 235 246 235 227 233 234 190 307 309 287 280 308 333 299 288 234 291 347 331 315 300 308 299 297 294 287 290 301 300 311 300 306 314 317 318
184 182 178 184 190 184 183 181 180 184 183 181 177 175 173 165 157 160 163 166 164 159 159 160 162 160 157 158 155 157 155 158 155 153 167 174 177 181 184 185 186 180 181 192 205 184 189 212 214 211 227 242 236 207 232 236 242 232 241 232 253 310 301 307 303 306 8 34 315 304 297 297 289 289 290 288 292 297 306 299 309 316 315 315 319
187 179 188 192 186 184 183 184 187 186 185 181 177 170 167 164 163 164 165 162 164 165 162 161 159 159 162 162 160 157 164 167 164 167 171 177 177 176 183 191 198 201 195 186 184 189 193 203 216 219 204 238 222 211 248 232 243 249 212 180 227 261 273 274 276 287 285 36 319 304 294 299 276 282 285 284 294 298 300 311 316 313 312 315 318
178 187 195 188 191 186 184 185 186 184 187 179 172 162 165 169 166 156 167 164 162 166 164 161 161 163 164 164 161 168 171 169 169 181 183 191 196 196 199 203 209 210 214 215 204 189 182 199 213 227 214 220 224 224 179 188 182 187 215 231 231 244 250 261 271 281 300 9 306 296 292 299 289 283 281 288 293 296 305 310 310 310 310 313 317
190 191 191 196 191 189 187 184 182 181 179 180 173 170 169 167 164 159 165 166 168 164 163 166 167 166 168 167 165 173 174 177 186 186 188 191 191 196 205 208 212 222 223 223 220 207 194 203 199 222 221 185 218 196 217 203 184 220 205 241 215 234 243 256 277 289 296 292 269 285 287 294 263 286 291 299 293 300 302 304 309 309 307 310 317
189 191 190 191 195 192 187 184 182 181 185 180 175 166 165 166 166 155 159 159 162 167 167 164 163 162 166 167 174 179 177 187 193 188 184 187 185 196 203 211 212 213 215 221 219 214 213 208 202 221 216 217 229 231 229 224 201 201 193 207 221 233 262 281 281 268 278 249 250 264 276 294 326 303 293 300 307 298 300 302 304 304 305 311 323
191 190 199 196 192 190 186 182 182 185 179 177 173 170 166 168 163 158 163 163 161 160 159 165 165 162 163 169 174 183 188 194 197 194 190 179 182 190 202 212 216 215 219 215 220 222 218 216 217 212 210 209 219 225 201 188 208 193 140 99 94 199 260 286 287 269 256 251 244 246 281 288 313 297 296 305 305 298 301 296 298 304 304 321 325
187 190 190 187 182 180 182 186 187 187 183 183 178 174 171 170 160 155 155 156 164 168 169 165 163 161 171 175 180 185 189 202 196 198 198 186 186 192 200 207 213 213 226 220 224 227 230 232 233 233 234 237 242 246 243 237 228 167 135 153 228 183 250 277 285 290 278 212 253 268 274 287 311 304 300 302 301 296 295 286 282 293 325 326 321
188 186 181 185 188 188 186 188 190 190 187 185 179 173 171 170 160 161 162 162 163 162 162 162 154 168 181 182 187 190 195 205 195 201 201 190 188 195 197 205 214 223 233 220 235 263 259 254 253 252 253 255 258 259 258 257 270 156 162 202 193 151 224 241 271 293 303 293 261 241 127 257 303 308 305 302 296 250 253 264 260 354 330 316 314
186 180 184 186 189 192 195 192 185 182 177 185 179 174 173 170 159 162 159 160 161 164 161 166 168 177 186 194 198 197 198 198 199 204 204 196 188 189 195 195 219 226 227 197 206 231 248 263 269 266 265 260 262 268 271 261 196 168 187 197 185 197 235 257 272 320 316 302 191 126 313 286 340 291 12 330 313 276 215 137 4 318 303 306 306